Home   Weather   Mannheim   Past weeks

Flag for Germany Past Weather in Mannheim, Baden-Württemberg, Germany — Yesterday and Last 2 Weeks

Now
39 °F

Passing clouds.


Feels Like: 35 °F
Forecast: 23 / 35 °F
Wind: 6 mph from North

Location: Mannheim City

Current Time: Dec 3, 2016 at 2:49:11 pm

Latest Report: Dec 3, 2016 at 1:50 pm


Visibility: N/A

Pressure: 30.24 "Hg

Humidity: 70%

Dew Point: 30 °F

Location of MannheimLocation

Past Weather in Mannheim — Graph

°F

Mannheim Temperature Yesterday

Maximum temperature yesterday: 43 °F (at 12:50 pm)
Minimum temperature yesterday: 34 °F (at 11:20 pm)
Average temperature yesterday: 40 °F

High & Low Weather Summary for the Past Weeks

 TemperatureHumidityPressure
High61 °F (Nov 20, 2:50 pm)100% (Nov 19, 8:50 am)30.57 "Hg (Nov 19, 8:50 am)
Low21 °F (Nov 30, 5:20 am)45% (Nov 20, 1:20 pm)29.59 "Hg (Nov 20, 10:20 am)
Average43 °F80%30.09 "Hg
* Reported Nov 18 1:50 pm — Dec 3 1:50 pm, Mannheim, Weather by CustomWeather, © 2016

Note: Actual official high and low records may vary slightly from our data, if they occured in-between our weather recording intervals... More about our weather records

Advertising

Mannheim Weather History for the Previous 24 Hours

Scroll right to see more
 ConditionsComfort  
Time TempWeatherWind HumidityBarometerVisibility
1:50 pm
Sat, Dec 3
39 °FPassing clouds.6 mph70%30.24 "HgN/A
1:20 pm39 °FSunny.8 mph70%30.27 "Hg10 mi
12:50 pm39 °FSunny.6 mph70%30.27 "Hg10 mi
12:20 pm37 °FPassing clouds.5 mph70%30.27 "HgN/A
11:50 am37 °FSunny.6 mph75%30.27 "Hg10 mi
11:20 am36 °FPassing clouds.5 mph81%30.27 "HgN/A
10:50 am34 °FSunny.3 mph87%30.27 "Hg10 mi
10:20 am32 °FSunny.2 mph93%30.27 "Hg10 mi
9:50 am30 °FSunny.2 mph100%30.27 "Hg10 mi
9:20 am28 °FSunny.3 mph100%30.27 "Hg10 mi
8:50 am27 °FSunny.2 mph100%30.27 "Hg10 mi
8:20 am27 °FSunny.2 mph100%30.24 "Hg10 mi
7:50 am27 °FClear.1 mph100%30.24 "Hg10 mi
7:20 am28 °FClear.2 mph100%30.24 "Hg10 mi
11:50 pm
Fri, Dec 2
34 °FClear.7 mph100%30.21 "Hg6 mi
11:20 pm34 °FClear.3 mph100%30.21 "Hg6 mi
8:50 pm39 °FPassing clouds.6 mph100%30.21 "Hg5 mi
8:20 pm41 °FFog.3 mph100%30.21 "Hg3 mi
7:50 pm39 °FFog.1 mph100%30.21 "Hg2 mi
7:20 pm41 °FFog.1 mph100%30.21 "Hg3 mi
6:50 pm41 °FFog.1 mph100%30.21 "Hg3 mi
6:20 pm41 °FDrizzle. Mostly cloudy.2 mph100%30.21 "Hg4 mi
5:50 pm41 °FMostly cloudy.2 mph100%30.21 "Hg4 mi
5:20 pm41 °FMostly cloudy.5 mph100%30.18 "Hg4 mi
4:50 pm41 °FOvercast.7 mph100%30.18 "Hg4 mi
4:20 pm41 °FDrizzle. Overcast.5 mph100%30.18 "Hg4 mi
3:50 pm43 °FOvercast.5 mph93%30.18 "HgN/A
3:20 pm43 °FOvercast.3 mph93%30.18 "Hg5 mi
2:50 pm43 °FOvercast.3 mph93%30.18 "HgN/A
2:20 pm43 °FMostly cloudy.5 mph87%30.18 "HgN/A
Weather by CustomWeather, © 2016

See weather overviewHow to use our weather pages